{"data":{"norad_id":62615,"epoch":"2026-09-22T05:45:53.038944Z","epoch_age_seconds":167439,"freshness":"FRESH","line1":"1 62615U 25009G   26265.24019721  .00004427  00000+0  17074-3 0  9991","line2":"2 62615  97.3881 344.1675 0005723   1.2787 358.8466 15.26819051 93606","mean_motion":15.26819051,"eccentricity":0.0005723,"inclination_deg":97.3881,"raan_deg":344.1675,"arg_perigee_deg":1.2787,"mean_anomaly_deg":358.8466,"bstar":0.00017074,"rev_number":9360,"period_min":94.313730173648,"perigee_km":481.4006360198,"apogee_km":489.25655874257,"semimajor_km":6863.4655973812,"source":"CELESTRAK","updated_at":"2026-09-23T09:00:21.499992Z"}}